Zurück zum Katalog

DELTA 1 DEB

AktivPO
NORAD 21336·DEBRIS·🇺🇸 United States

Gestartet Jun 12, 1975 von Vandenberg Space Force Base

Loading…

Nächste Überflüge (nächste 24 Stunden)

TLE

AktuellSource: Space-Track

Epoche: Sep 14, 2026, 04:47 UTC

1 21336U 75052BE  26257.19987225 -.00000668  00000-0 -10968-2 0  9997
2 21336  99.1932 142.6681 0168502  21.8182 129.1965 13.38154218703001

Verfolge DELTA 1 DEB in Echtzeit mit AllMySat

Download on the App Store